DateTimeUTC,F1_A11,F1_S11,BsB_S11,BsG_S11,BsR_S11,BbsB_S11,BbsG_S11,BbsR_S11,BaB_A11,BaG_A11,BaR_A11,Tu_S11,T_S11,Uu_S11,U_S11,P_S11,T1_A11
2021-08-14T06:00:00Z,00000200,20000000,,,,,,,-000.31,-000.32,-000.49,19.0,25.2,22.3,15.3,0674.7,30.9
2021-08-14T06:01:00Z,00000200,20000000,,,,,,,-000.58,-000.26,0000.05,19.0,25.2,22.3,15.3,0674.7,30.9
2021-08-14T06:02:00Z,00000200,20000000,,,,,,,0000.10,0000.01,-000.28,19.0,25.2,22.3,15.3,0674.7,30.9
2021-08-14T06:03:00Z,00000200,60000000,,,,,,,0000.14,-000.28,0000.17,19.0,25.2,22.3,15.3,0674.7,30.9
2021-08-14T06:04:00Z,00000200,40000000,0000.66,0000.16,-000.01,0000.03,0000.14,-000.27,-000.31,-000.31,-000.65,19.1,25.1,22.2,15.4,0675.6,30.9
2021-08-14T06:05:00Z,00000200,00000000,-000.18,-000.15,0000.09,0000.14,-000.32,-000.20,-000.06,0000.17,0000.14,19.1,25.1,22.2,15.4,0675.6,30.9
2021-08-14T06:06:00Z,00000200,00000000,0000.24,0000.03,-000.02,-000.39,0000.09,-000.29,-000.17,-000.35,0000.05,19.1,25.1,22.1,15.4,0675.6,30.9
2021-08-14T06:07:00Z,00000200,00000000,0000.20,-000.03,-000.17,0000.30,0000.16,0000.07,0000.07,-000.25,-000.36,19.1,25.1,22.3,15.6,0675.6,30.9
2021-08-14T06:08:00Z,00000200,00000000,-000.33,-000.27,-000.02,0000.13,0000.17,-000.04,-000.20,-000.03,0000.21,19.1,25.0,22.3,15.6,0675.7,30.9
2021-08-14T06:09:00Z,00000200,00000000,-000.16,-000.01,-000.00,0000.05,-000.02,0000.05,-000.46,-000.47,-000.69,19.1,25.0,22.3,15.6,0675.7,30.9
2021-08-14T06:10:00Z,00000200,00000000,0000.29,0000.03,-000.14,0000.25,0000.18,-000.19,-000.11,0000.00,0000.16,19.2,25.0,22.4,15.6,0675.7,30.9
2021-08-14T06:11:00Z,00000200,00000000,-000.11,0000.07,0000.07,-000.02,-000.03,0000.00,-000.08,0000.06,-000.25,19.2,25.1,22.4,15.6,0675.7,30.9
2021-08-14T06:12:00Z,00000200,00000000,-000.12,-000.24,0000.28,-000.11,0000.08,0000.24,-000.39,-000.29,-000.24,19.2,25.1,22.4,15.6,0675.7,30.9
2021-08-14T06:13:00Z,00000200,00000000,0000.33,-000.25,-000.32,0000.08,0000.07,-000.24,0000.01,0000.07,-000.05,19.2,25.1,22.4,15.6,0675.8,30.9
2021-08-14T06:14:00Z,00000200,00000000,0000.30,-000.25,-000.31,0000.18,0000.31,-000.12,-000.01,-000.16,-000.29,19.2,25.1,22.4,15.6,0675.7,30.9
2021-08-14T06:15:00Z,00000200,00000000,-000.01,0000.13,-000.09,-000.18,-000.16,-000.24,-000.07,-000.44,-000.07,19.2,25.1,22.4,15.6,0675.7,30.9
2021-08-14T06:16:00Z,00000200,00000000,0000.46,0000.03,-000.11,0000.48,0000.13,-000.24,-000.01,0000.12,-000.11,19.2,25.1,22.5,15.7,0675.7,30.9
2021-08-14T06:17:00Z,00000200,00000000,0000.13,-000.02,-000.29,-000.41,0000.07,-000.31,-000.21,-000.38,-000.19,19.2,25.1,22.6,15.8,0675.7,30.9
2021-08-14T06:18:00Z,00000200,00000000,-000.10,0000.05,-000.06,-000.11,-000.05,0000.19,-000.28,0000.08,0000.05,19.2,25.1,22.7,15.9,0675.7,30.9
2021-08-14T06:19:00Z,00000200,00000000,-000.25,0000.05,0000.23,0000.24,-000.04,-000.11,0000.19,-000.15,-000.30,19.2,25.1,22.6,15.8,0675.7,30.9
2021-08-14T06:20:00Z,00000200,00000000,-000.37,-000.28,0000.15,-000.34,-000.00,0000.19,-000.27,-000.36,-000.08,19.2,25.1,22.6,15.8,0675.7,30.9
2021-08-14T06:21:00Z,00000200,00000000,0000.13,0000.09,-000.24,0000.08,0000.27,-000.21,-000.26,0000.33,-000.02,19.2,25.1,22.7,15.9,0675.7,30.9
2021-08-14T06:22:00Z,00000200,00000000,-000.07,0000.07,0000.10,0000.10,0000.04,-000.29,-000.10,-000.53,-000.23,19.2,25.1,22.7,15.9,0675.7,30.9
2021-08-14T06:23:00Z,00000200,00000000,0000.05,-000.09,-000.01,-000.31,-000.01,0000.14,0000.12,0000.23,0000.04,19.2,25.1,22.7,15.9,0675.7,30.9
2021-08-14T06:24:00Z,00000200,00000000,-000.16,-000.15,0000.27,-000.02,-000.05,0000.11,-000.21,-000.69,-000.12,19.2,25.1,22.6,15.8,0675.6,30.9
2021-08-14T06:25:00Z,00000200,00000000,0000.53,-000.21,0000.15,0001.08,0000.08,0000.22,0000.21,0000.20,-000.17,19.2,25.1,22.7,15.9,0675.7,30.9
2021-08-14T06:26:00Z,00000200,00000000,0000.51,-000.02,0000.02,0000.65,-000.04,0000.03,-000.75,-000.27,-000.32,19.2,25.1,22.6,15.8,0675.7,30.9
2021-08-14T06:27:00Z,00000200,00000000,0000.14,-000.22,0000.07,-000.07,0000.08,0000.36,-000.00,-000.61,-000.04,19.2,25.1,22.6,15.8,0675.7,30.9
2021-08-14T06:28:00Z,00000200,00000000,0000.57,-000.04,0000.15,0000.28,-000.03,-000.06,-000.52,0000.09,-000.42,19.2,25.1,22.4,15.8,0675.8,30.9
2021-08-14T06:29:00Z,00000200,00000000,0000.55,0000.09,-000.13,-000.37,-000.21,-000.15,-000.14,-000.21,-000.21,19.2,25.1,22.5,15.8,0675.8,30.9
2021-08-14T06:30:00Z,00000200,00000000,0000.19,0000.09,-000.03,0000.72,-000.05,0000.05,-000.03,-000.26,0000.07,19.3,25.1,22.5,15.8,0675.7,30.9
2021-08-14T06:31:00Z,00000200,00000000,-000.05,0000.03,0000.28,-000.05,0000.19,0000.02,-000.13,0000.07,-000.14,19.3,25.1,22.5,15.8,0675.7,30.9
2021-08-14T06:32:00Z,00000200,00000000,0000.32,0000.03,-000.11,0000.03,0000.25,0000.04,-000.04,-000.30,-000.45,19.3,25.1,22.6,15.8,0675.7,30.9
2021-08-14T06:33:00Z,00000200,00000000,0000.07,-000.00,0000.18,0000.33,-000.23,0000.03,0000.01,-000.13,-000.01,19.3,25.1,22.5,15.8,0675.8,30.9
2021-08-14T06:34:00Z,00000200,00000000,0000.21,-000.22,-000.11,-000.53,-000.36,-000.09,-000.54,-000.36,-000.36,19.3,25.1,22.5,15.8,0675.8,30.9
2021-08-14T06:35:00Z,00000200,00000000,-000.05,-000.20,-000.05,0000.68,0000.21,-000.01,0000.32,0000.21,0000.54,19.3,25.1,22.5,15.8,0675.8,30.9
2021-08-14T06:36:00Z,00000200,00000000,0000.85,0000.09,0000.13,0000.48,0000.18,-000.16,-000.48,-000.26,-000.70,19.3,25.1,22.5,15.8,0675.7,30.9
2021-08-14T06:37:00Z,00000200,00000000,0000.47,-000.12,0000.03,-000.74,-000.14,-000.32,0000.14,0000.12,-000.03,19.3,25.1,22.6,15.9,0675.8,30.9
2021-08-14T06:38:00Z,00000200,00000000,0000.04,-000.25,0000.23,-000.18,-000.05,-000.13,-000.38,-000.15,-000.33,19.3,25.1,22.7,15.9,0675.7,30.9
2021-08-14T06:39:00Z,00000200,00000000,0000.42,-000.32,-000.41,-000.25,0000.30,-000.13,-000.21,-000.52,0000.08,19.3,25.1,22.7,15.9,0675.8,30.9
2021-08-14T06:40:00Z,00000200,00000000,-000.28,-000.20,-000.17,0000.31,0000.08,-000.20,-000.11,-000.24,-000.26,19.3,25.1,22.6,15.9,0675.8,30.9
2021-08-14T06:41:00Z,00000200,00000000,-000.24,0000.04,-000.04,-000.40,-000.35,-000.30,-000.40,-000.22,-000.15,19.3,25.1,22.6,15.8,0675.8,30.9
2021-08-14T06:42:00Z,00000200,00000000,0000.11,0000.08,-000.01,-000.10,0000.13,0000.13,-000.17,-000.20,-000.33,19.3,25.1,22.7,15.9,0675.8,30.9
2021-08-14T06:43:00Z,00000200,00000000,-000.54,0000.03,-000.05,0000.11,0000.00,-000.04,0000.07,0000.08,0000.11,19.3,25.1,22.7,15.9,0675.7,30.9
2021-08-14T06:44:00Z,00000200,00000000,-000.05,0000.17,-000.23,0000.01,0000.20,-000.24,-000.31,-000.30,-000.49,19.3,25.1,22.7,15.9,0675.8,30.9
2021-08-14T06:45:00Z,00000200,00000000,0000.41,-000.20,-000.18,-000.31,0000.14,-000.40,-000.01,0000.18,0000.10,19.3,25.1,22.7,15.9,0675.8,30.9
2021-08-14T06:46:00Z,00000200,00000000,0000.43,0000.12,0000.22,0000.10,-000.08,-000.24,-000.19,-000.18,0000.23,19.3,25.1,22.6,15.9,0675.8,30.9
2021-08-14T06:47:00Z,00000200,00000000,-000.46,-000.02,-000.04,-000.36,-000.08,-000.33,-000.03,-000.90,-000.57,19.3,25.1,22.6,15.9,0675.8,30.9
2021-08-14T06:48:00Z,00000200,00000000,0000.43,0000.11,0000.01,0000.87,0000.19,-000.15,-000.06,0000.63,-000.29,19.3,25.1,22.7,15.9,0675.8,30.9
2021-08-14T06:49:00Z,00000200,00000000,-000.37,-000.44,0000.05,-000.40,0000.24,0000.10,-000.12,-000.24,0000.07,19.3,25.1,22.6,15.9,0675.7,30.9
2021-08-14T06:50:00Z,00000200,00000000,-000.20,-000.33,-000.02,-000.27,-000.08,-000.00,-000.32,-000.38,-000.26,19.3,25.1,22.8,16.0,0675.7,30.9
2021-08-14T06:51:00Z,00000200,00000000,-001.01,-000.12,-000.08,-000.52,-000.11,-000.15,0000.11,-000.05,-000.01,19.3,25.1,22.7,16.0,0675.7,30.9
2021-08-14T06:52:00Z,00000200,00000000,0000.12,-000.21,-000.25,-000.14,-000.21,0000.24,-000.16,-000.08,-000.06,19.3,25.1,22.8,16.0,0675.7,30.9
2021-08-14T06:53:00Z,00000200,00000000,0000.31,-000.08,-000.21,0000.45,-000.09,-000.02,-000.49,-000.24,-000.24,19.3,25.1,22.8,16.0,0675.7,30.9
2021-08-14T06:54:00Z,00000200,00000000,0000.20,0000.16,0000.21,-000.15,-000.04,0000.17,0000.17,-000.33,-000.28,19.3,25.1,22.8,16.0,0675.7,30.9
2021-08-14T06:55:00Z,00000200,00000000,-000.05,-000.36,0000.05,-000.26,-000.14,-000.17,-000.00,0000.07,0000.03,19.3,25.2,22.8,16.0,0675.7,30.9
2021-08-14T06:56:00Z,00000200,00000000,0000.18,0000.26,-000.20,0000.77,0000.09,-000.04,-000.29,-000.28,-000.00,19.3,25.1,22.9,16.1,0675.8,30.9
2021-08-14T06:57:00Z,00000200,40000000,,,,,,,-000.58,-000.16,-000.36,19.4,25.2,22.8,16.0,0675.9,30.9
2021-08-14T06:58:00Z,00000200,60000000,,,,,,,0000.08,-000.18,-000.19,19.2,25.3,23.0,15.8,0674.7,31.0
2021-08-14T06:59:00Z,00000200,20000000,,,,,,,-000.16,-000.22,-000.29,19.2,25.4,23.0,15.8,0674.7,30.9
